#timestamp,LO_Frequency,Hit,StdDev 
1621843215.5,286046997.1,N
1621843235.3,286046997.5,N
1621843255.2,286046995.1,N
1621843275.9,286046995.8,N
1621843295.7,286046996.3,N
1621843315.6,286046995.8,N
1621843335.4,286046993.4,N
1621843355.2,286046994.7,N
1621843375.1,286046994.6,N
1621843376.0,286046994.6,N
1621843395.8,286046992.2,N
1621843415.7,286046992.5,N
1621843435.5,286046994.8,N
1621843455.3,286046990.4,N
1621843475.2,286046990.8,N
1621843495.9,286046991.2,N
1621843515.7,286046990.6,N
1621843535.6,286046990.3,N
1621843555.4,286046988.6,N
1621843575.3,286046992.3,N
1621843595.1,286046990.3,N
1621843596.0,286046990.3,N
1621843615.8,286046988.7,N
1621843635.7,286046989.2,N
1621843655.5,286046989.0,N
1621843675.3,286046989.9,N
1621843695.2,286046986.9,Y
1621843715.0,286046993.5,P
1621843715.9,286046993.5,P
1621843735.8,286046995.9,P
1621843755.6,286046993.3,Y
1621843775.4,286047000.4,P
1621843795.3,286047000.5,N
1621843815.1,286047000.8,N
1621843835.9,286047000.8,N
1621843855.7,286046998.2,N
1621843875.5,286047001.2,N
1621843895.4,286046998.4,N
1621843915.2,286046996.5,N
1621843935.1,286046999.1,N
1621843936.0,286046999.1,N
1621843955.8,286046999.2,N
1621843975.6,286046996.7,N
1621843995.5,286046997.3,N
1621844015.3,286046995.0,N
1621844035.1,286046995.4,N
1621844055.9,286046996.0,N
1621844075.7,286046993.5,N
1621844095.6,286046991.7,Y
1621844115.4,286046995.2,P
1621844135.2,286046993.7,P
1621844155.1,286046996.4,N
1621844156.0,286046996.4,N
1621844175.8,286046995.9,N
1621844195.7,286046994.8,Y
1621844215.5,286046997.3,P
1621844235.3,286046998.5,N
1621844255.2,286046997.7,N
1621844275.0,286046994.9,Y
1621844275.9,286046994.9,P
1621844295.8,286046996.8,N
1621844315.6,286046996.7,P
1621844335.4,286046996.5,Y
1621844355.3,286047000.4,P
1621844375.1,286047000.4,N
1621844395.8,286046998.5,N
1621844415.7,286046998.8,N
1621844435.5,286046999.2,N
1621844455.4,286046998.8,N
1621844475.2,286047000.8,N
1621844495.0,286047002.7,N
1621844495.9,286047002.7,N
1621844515.8,286046999.8,N
1621844535.6,286047001.0,N
1621844555.4,286046999.3,N
1621844575.3,286046999.5,N
1621844595.1,286046997.0,N
1621844615.9,286046997.7,N
1621844635.7,286046997.1,N
1621844655.5,286046997.4,N
1621844675.4,286046996.5,N
1621844695.2,286046995.5,N
1621844715.1,286046993.4,Y
1621844716.0,286046993.4,P
1621844735.8,286046993.4,N
1621844755.6,286046991.8,P
1621844775.5,286046991.7,Y
1621844795.3,286046999.3,P
1621844815.1,286046999.4,N
1621844835.9,286046999.2,N
1621844855.7,286046996.9,N
1621844875.6,286046996.8,N
1621844895.4,286046994.9,N
1621844915.2,286046997.9,N
1621844935.1,286046997.8,N
1621844936.0,286046997.8,N
1621844955.8,286046995.8,N
1621844975.7,286046996.4,N
1621844995.5,286046993.9,Y
1621845015.3,286046998.0,P
1621845035.2,286046998.0,P
1621845055.0,286046994.9,P
1621845055.9,286046994.9,Y
1621845075.7,286046998.6,P
1621845095.6,286046999.0,N
1621845115.4,286046999.3,N
1621845135.3,286046998.6,N
1621845155.1,286046996.7,Y
1621845175.8,286046998.8,P
1621845225.7,286046998.3,E
1621845235.6,286046998.1,N
1621845255.5,286047000.4,P
1621845275.3,286047003.7,P
1621845295.1,286047005.0,N
1621845315.9,286047004.2,N
1621845335.7,286047002.0,N
1621845355.6,286047001.0,N
1621845375.4,286046998.3,N
1621845395.2,286046998.6,N
1621845415.1,286046999.1,N
1621845416.0,286046999.1,N
1621845435.8,286046999.5,N
1621845455.6,286046999.0,N
1621845475.5,286046996.8,N
1621845495.3,286046996.8,N
1621845515.2,286046997.3,N
1621845535.9,286046996.5,N
1621845555.7,286046997.0,N
1621845575.6,286047001.1,N
1621845595.4,286046999.3,N
1621845615.2,286046999.5,N
1621845635.1,286046997.0,N
1621845636.0,286046997.0,N
1621845655.8,286046997.7,N
1621845675.7,286046997.8,N
1621845695.5,286046996.8,N
1621845715.3,286046997.9,N
1621845735.2,286046997.9,N
1621845755.0,286046997.6,N
1621845755.9,286046997.6,N
1621845775.7,286046997.1,N
1621845795.6,286046997.0,N
1621845815.4,286046997.4,N
1621845835.3,286046995.1,N
1621845855.1,286046995.9,N
1621845856.0,286046995.9,N
1621845875.8,286046993.7,Y
1621845895.7,286046995.4,P
1621845915.5,286046996.4,N
1621845935.3,286046993.6,P
1621845955.2,286046993.5,Y
1621845975.0,286046996.8,P
1621845975.9,286046996.8,P
1621845995.8,286046997.3,P
1621846015.6,286046997.0,Y
1621846035.4,286047000.2,P
1621846055.3,286047001.5,N
1621846075.1,286047002.6,N
1621846095.9,286047002.7,N
1621846115.7,286047002.6,N
1621846135.5,286047002.6,N
1621846155.4,286047002.1,N
1621846175.2,286047002.8,N
1621846195.0,286047000.9,N
1621846195.9,286047000.9,N
1621846215.8,286047001.0,N
1621846235.6,286046998.5,N
1621846255.5,286046998.5,N
1621846275.3,286046998.2,N
1621846295.1,286046999.3,N
1621846315.9,286046999.2,N
1621846335.7,286046999.4,N
1621846355.6,286046998.8,N
1621846375.4,286046999.3,N
1621846395.2,286046999.2,N
1621846415.1,286046996.6,N
1621846416.0,286046996.6,N
1621846435.8,286046997.7,N
1621846455.6,286046995.2,N
1621846475.5,286046995.1,N
1621846495.3,286046996.0,N
1621846515.2,286046993.4,N
1621846535.9,286046996.2,N
1621846555.7,286046996.3,N
1621846575.6,286046994.2,N
1621846595.4,286046996.1,N
1621846615.2,286046994.4,N
1621846635.1,286046992.2,N
1621846636.0,286046992.2,N
1621846655.8,286046992.0,N
1621846675.7,286046993.1,N
1621846695.5,286046992.8,N
1621846715.3,286046992.6,N
1621846735.2,286046991.9,N
1621846755.0,286046993.9,N
1621846755.9,286046993.9,N
1621846775.8,286046996.1,N
1621846795.6,286046994.3,N
